User: anonymous
Location: Oshawa
(43.9000°N, 78.8670°W)
Time: 17:24:34
(UTC-04:00)
Language:

SPOT 5 - Orbit

View from above orbital plane
View from above orbital plane
View from above satellite
View from above satellite

Ground track
Ground track

The orbit data is extracted from the following two-line orbital elements,

1 27421U 02021A   14110.43874361  .00000471  00000-0  24074-3 0  4823
2 27421 098.5664 175.3882 0001321 090.4997 002.6059 14.20104339620125
Epoch (UTC): 20 April 2014 10:31:47
Eccentricity: 0.0001321
inclination: 98.5664°
perigee height: 824 km
apogee height: 826 km
right ascension of ascending node: 175.3882°
argument of perigee: 90.4997°
revolutions per day: 14.20104339
mean anomaly at epoch: 2.6059°
orbit number at epoch: 62012

The dashed part of the orbit path shows where the satellite is in the earth's shadow,  

DLR